Regional Weather Roundup
Issued by NWS

Home | Current Version | Previous Version | Text Only | Print | Product List | Glossary On
Versions: 1 2 3 4 5 6 7 8 9 10 11 12 13 14 15 16 17 18 19 20 21 22 23 24 25 26 27
000
ASUS45 KTFX 240610
RWRMT
MONTANA REGIONAL WEATHER ROUNDUP
NATIONAL WEATHER SERVICE GREAT FALLS MT
1200 AM MDT MON APR 24 2017

NOTE: "FAIR" INDICATES FEW OR NO CLOUDS BELOW 12000 FEET WITH NO
SIGNIFICANT WEATHER AND/OR OBSTRUCTIONS TO VISIBILITY.

MTZ001>007-043-240700-
WEST OF THE DIVIDE

CITY           SKY/WX    TMP DP  RH WIND       PRES   REMARKS
KALISPELL      CLOUDY    41  38  89 W3        29.73F
MISSOULA       CLOUDY    44  36  73 NW6       29.77S
BUTTE          CLOUDY    40  33  76 SW3       29.74F
MULLAN PASS    CLOUDY    32  31  96 VRB3      29.74F
ANACONDA         N/A     43  30  61 W10       29.75S
DEER LODGE       N/A     39  32  75 NE3       29.77S
EUREKA           N/A     41  37  87 CALM      29.73F
HAMILTON         N/A     46  37  71 SW6       29.77R
LIBBY            N/A     43  41  93 CALM      29.73S
$$

MTZ008-052>055-240700-
SOUTHWEST MONTANA

CITY           SKY/WX    TMP DP  RH WIND       PRES   REMARKS
BOZEMAN        CLOUDY    42  40  92 E6        29.75F
DILLON         PTCLDY    40  34  79 S10       29.75F
W YELLOWSTONE  FOG       32  32 100 CALM      29.82S VSB 1/4
ENNIS          CLOUDY    37  34  87 S7        29.80F
THREE FORKS      N/A     44  44 100 CALM      29.77S
$$

MTZ009-010-012-014-046-048-049-054-240700-
EAST SLOPES AND CENTRAL MONTANA

CITY           SKY/WX    TMP DP  RH WIND       PRES   REMARKS
CUT BANK       MOCLDY    40  34  79 NW7       29.68F
GREAT FALLS    MOCLDY    40  35  83 SE9       29.70F
MALMSTROM AFB  MOCLDY    38  37  96 SE8       29.70F
HELENA         PTCLDY    47  33  58 CALM      29.71F
AUGUSTA        MOCLDY    42  31  67 W8        29.70S
BOWMANS CRNR   MOCLDY    43  30  60 W3        29.69S
CHOTEAU          N/A     41  39  93 S8        29.71S
FAIRFIELD      MOCLDY    40  36  85 SE5       29.69S
POWER          MOCLDY    38  37  96 CALM      29.69S
RAYNESFORD     MOCLDY    41  36  83 E7        29.71S
ULM            MOCLDY    41  37  87 E7        29.70S
$$

MTZ011-013-016-021-045-047-050-051-240700-
NORTH CENTRAL MONTANA

CITY           SKY/WX    TMP DP  RH WIND       PRES   REMARKS
HAVRE          CLOUDY    39  38  96 NE9       29.69S
LEWISTOWN      CLOUDY    38  37  97 W8        29.70S
N BAR RANCH    CLOUDY    39  37  93 SW6       29.72R
CHINOOK          N/A     39  36  87 E7        29.71S
DENTON         MOCLDY    42  41  97 W13       29.66S
FORT BENTON      N/A     45  37  76 MISG      29.69F
GEYSER         RAIN      41  38  88 NW14      29.71R
GRASS RANGE      N/A     41  41  98 W6        29.66S
JUDITH GAP       N/A     34  32  92 N6        29.70S WCI  29
STANFORD       MOCLDY    38  38  98 SW3       29.69F
WINIFRED         N/A     40  39  99 W6        29.68S
$$

MTZ017>020-022>027-061-062-240700-
NORTHEAST MONTANA

CITY           SKY/WX    TMP DP  RH WIND       PRES   REMARKS
GLASGOW        CLOUDY    32  31  96 E18       29.73F FOG     WCI  20
JORDAN           N/A     40  36  86 NE5       29.68R
SIDNEY         MIX PCPN  31  30  96 E10       29.80S WCI  22
WOLF POINT     CLOUDY    34  31  88 E15       29.76F WCI  24
MALTA          CLOUDY    36  34  93 E12       29.72F WCI  27
PLENTYWOOD       N/A     28  28 100 E15       29.80S WCI  17
POPLAR           N/A     30  28  93 E14       29.79R WCI  20
SCOBEY           N/A     29  23  78 E14       29.77F WCI  18
$$

MTZ028>42-056>058-240700-
SOUTHCENTRAL AND SOUTHEAST MONTANA

CITY           SKY/WX    TMP DP  RH WIND       PRES   REMARKS
BAKER          LGT RAIN  36  33  89 E15       29.71S WCI  27
BILLINGS       PTCLDY    44  39  82 NW7       29.69F
LIVINGSTON     CLOUDY    44  38  79 W14       29.72F
MILES CITY     LGT RAIN  40  38  93 NE13      29.67F
BIG TIMBER     CLEAR     43  37  81 W13       29.73F
EKALAKA          N/A     38  34  85 NE9       29.66R WCI  31
LAUREL           N/A     44  35  70 CALM      29.72R
ROUNDUP          N/A     44  40  86 CALM      29.64S
$$

REGIONAL REPORTS...DAKOTAS

CITY           SKY/WX    TMP DP  RH WIND       PRES   REMARKS
WILLISTON      CLOUDY    31  27  85 SE12      29.82R WCI  22
MINOT          CLOUDY    31  26  82 E17       29.84F WCI  19
DICKINSON      FOG       29  28  96 E17       29.71R VSB 1/4 WCI  17
BEACH          CLOUDY    32  32 100 E7        29.79F FOG     WCI  26
TIOGA          CLOUDY    27  27 100 E25       29.79F WCI  11
WATFORD CITY   CLOUDY    28  28 100 E13       29.81R WCI  18
BISMARCK       CLOUDY    33  30  88 E17       29.76F WCI  22
GRAND FORKS      N/A     34  31  88 NE14      29.91F WCI  25
FARGO          CLOUDY    39  34  82 E14       29.81F WCI  31
BUFFALO SD       N/A     37  37 100 NE15      29.58F WCI  28
RAPID CITY     CLOUDY    44  41  89 N17       29.58F
$$

REGIONAL REPORTS...WYOMING/IDAHO/WASHINGTON

CITY           SKY/WX    TMP DP  RH WIND       PRES   REMARKS
GILLETTE       CLOUDY    50  45  83 NW23G31   29.62R
SHERIDAN       CLOUDY    47  42  83 N12       29.70R
BUFFALO WY     CLOUDY    46  37  71 N24G41    29.67S
CODY           CLEAR     41  37  86 E6        29.74
YELLOWSTONE LA   N/A     26  25  96 CALM      29.83F
IDAHO FALLS    CLOUDY    48  35  60 S10       29.77F
SALMON         CLOUDY    41  37  87 CALM      29.76F
BOISE          CLOUDY    53  42  66 S3        29.75F
SPOKANE        CLOUDY    48  37  65 SW13      29.74F
$$

REGIONAL REPORTS...ALBERTA

CITY           SKY/WX    TMP DP  RH WIND       PRES   REMARKS
EDMONTON       CLOUDY    32  30  93 E6        29.77S WCI  26
CALGARY        LGT RAIN  36  32  87 NE10      29.70F WCI  28
LETHBRIDGE     MOCLDY    41  37  87 CALM      29.67S
MEDICINE HAT   CLOUDY    45  39  81 S10       29.64F
WATERTON GATE    N/A     41  25  52 SW9         N/A
CARDSTON         N/A     41  37  87 S1          N/A
MILK RIVER       N/A     37  36  93 NW3         N/A
ONEFOUR          N/A     39  39 100 SE6         N/A
$$

REGIONAL REPORTS...SASKATCHEWAN

CITY           SKY/WX    TMP DP  RH WIND       PRES   REMARKS
SWIFT CURRENT  CLOUDY    30  30 100 SE10      29.71F WCI  21
REGINA         LGT SNOW  28  27  93 SE13G23   29.86F WCI  18
SASKATOON      DRIZZLE   32  30  93 SE13G23   29.88F WCI  22
VAL MARIE        N/A     32  34 100 SE6         N/A  WCI  26
ASSINIBOIA       N/A     34  34 100 E8          N/A  WCI  27
$$




USA.gov is the U.S. government's official web portal to all federal, state and local government web resources and services.